Location: Caser�o La Acifria
(37.1833°N, 2.8333°W)
Time: 08:47:02
(UTC+00:00)

Daily predictions for brighter satellites

Satellite Brightness Start Highest point End
(mag) Time Altitude Azimuth Time Altitude Azimuth Time Altitude Azimuth
IRS-1A Rocket 4.4 19:46:59 10° SSE 19:52:47 85° ENE 19:58:31 10° NNW
Cosmos 407 Rocket 3.6 19:48:10 10° NNW 19:53:33 78° ENE 19:58:53 10° SSE
Cosmos 1833 Rocket 3.6 19:49:28 10° N 19:54:33 34° ENE 19:59:36 10° SE
Cosmos 614 Rocket 4.1 19:49:31 10° NNW 19:54:37 80° WSW 19:59:43 10° SSE
Meteor 1-18 Rocket 4.2 19:50:32 10° S 19:56:04 81° E 20:01:45 10° N
CZ-2C R/B 3.6 19:50:58 10° S 19:56:23 70° WSW 20:02:07 10° NNW
Cosmos 1420 Rocket 4.1 19:51:55 10° S 19:56:58 55° ESE 20:02:01 10° NNE
Cosmos 1452 Rocket 4.1 19:52:31 10° SSE 19:57:19 36° E 20:02:08 10° NE
STARLINK-1107 3.7 19:53:18 10° NW 19:57:26 73° NE 20:01:34 10° SE
BREEZE-M DEB 3.2 19:56:16 10° S 19:57:55 17° SE 19:59:36 10° E
Cosmos 909 Rocket 4.3 19:51:14 10° NNW 19:58:48 77° ENE 20:05:10 10° SSE
Cosmos 2082 Rocket 3.6 19:56:27 10° N 20:01:02 24° ENE 20:05:35 10° ESE
STARLINK-1066 3.6 19:58:16 10° NW 20:02:25 80° NE 20:06:33 10° SE
Cosmos 1461 3.6 20:00:11 10° S 20:03:47 32° ESE 20:07:33 10° NE
DMSP B5D2-2 4.1 19:58:43 10° NNE 20:03:57 62° E 20:09:08 10° S
SJ-6B 2.6 20:02:23 10° SSE 20:06:06 86° ENE 20:09:51 10° N
Okean 3 4.1 20:02:37 10° SSE 20:06:36 38° E 20:10:35 10° NNE
STARLINK-1081 3.6 20:03:15 10° NW 20:07:25 89° NE 20:11:25 11° SE
Cosmos 1140 Rocket 3.5 20:02:35 10° NNW 20:07:49 77° ENE 20:13:02 10° SSE
Cosmos 1782 Rocket 3.6 20:03:39 10° N 20:08:07 68° E 20:12:33 10° SSE
ASTEX 1 3.4 20:03:38 10° S 20:08:32 88° W 20:13:28 10° N
MOS 1 Rocket 3.1 20:05:09 10° NNE 20:09:30 88° ESE 20:13:46 10° SSW
Cosmos 1544 3.2 20:06:09 10° N 20:09:42 55° E 20:13:13 10° SSE
Cosmos 1703 Rocket 4.3 20:05:35 10° SSW 20:09:49 56° W 20:14:05 10° N
STARLINK-1070 3.6 20:08:13 10° NW 20:12:22 83° SW 20:16:11 12° SE
ASTRO E2 3.6 20:08:57 10° SW 20:12:26 30° S 20:15:41 11° ESE
Cosmos 2221 Rocket 4.0 20:10:09 10° SSE 20:14:25 44° E 20:18:45 10° NNE
STARLINK-1069 3.7 20:13:12 10° NW 20:17:20 75° SW 20:20:58 13° SE
NOSS 8 (F) 4.2 20:13:56 10° SSW 20:17:33 68° ESE 20:20:37 10° NE
Meteor 2-9 Rocket 4.1 20:13:13 10° N 20:18:34 73° E 20:23:51 10° SSE
SL-4 R/B 2.3 20:16:01 10° N 20:18:42 29° ENE 20:20:30 15° ESE
STARLINK-1085 3.8 20:18:13 10° NW 20:22:19 67° SW 20:25:46 14° SE
Cosmos 1190 Rocket 4.3 20:17:25 10° NNW 20:22:37 69° WSW 20:27:48 10° S
STARLINK-1086 3.9 20:23:12 10° NW 20:27:17 60° SW 20:30:33 15° SSE
Cosmos 2278 Rocket 3.1 20:24:23 10° SW 20:29:55 55° WNW 20:35:30 10° NNE
Sich 1 Rocket 3.6 20:27:12 10° N 20:31:49 81° E 20:36:21 10° S
Resurs 01 Rocket 1.9 20:28:14 14° SSE 20:31:57 53° ENE 20:36:17 10° N
STARLINK-1095 4.1 20:28:12 10° NW 20:32:14 53° SW 20:35:19 16° SSE
GPS 2-04 Rocket1 2.3 20:29:43 10° W 20:33:11 69° S 20:35:57 16° E
STARLINK-1077 4.2 20:33:12 10° WNW 20:37:11 48° SW 20:40:06 17° SSE
Okean 2 Rocket 3.3 20:32:57 10° N 20:37:17 53° E 20:40:26 17° SSE
Meteor 1-12 Rocket 4.4 20:35:04 10° N 20:40:41 60° E 20:45:11 16° SSE
Cosmos 371 Rocket 3.5 20:37:12 10° SSW 20:42:01 76° WNW 20:46:55 10° NNE
STARLINK-1075 4.4 20:38:15 10° WNW 20:42:11 43° SW 20:44:54 18° SSE
SPOT 3 Rocket 3.7 20:37:10 10° S 20:42:18 74° WSW 20:47:28 10° NNW
SL-4 R/B 3.3 20:39:43 10° S 20:43:29 25° SE 20:47:22 10° ENE
ATLAS 3B CENTAUR R/B 4.1 20:27:50 10° WSW 20:44:26 48° S 20:50:56 16° ESE
Cosmos 2279 Rocket 4.1 20:39:22 10° N 20:45:30 58° E 20:50:13 17° SSE
Cosmos 1954 Rocket 4.2 20:41:00 10° NNW 20:46:16 74° WSW 20:50:49 14° S
Terra 4.0 20:45:15 10° ENE 20:46:17 11° ENE 20:47:20 10° NE
Spot 2 Rocket 4.2 20:44:03 19° SE 20:47:02 38° ENE 20:51:39 10° N
NOSS 8 (H) 4.2 20:45:13 10° SSW 20:48:43 89° ENE 20:51:46 10° NNE
STARLINK-1071 4.4 20:45:31 10° NW 20:49:28 43° NE 20:51:55 21° E
H-2A R/B 4.4 20:47:50 10° SW 20:51:27 20° W 20:55:08 10° NW
Milstar 3 Cent rocket 4.4 20:44:29 10° SSW 20:51:37 30° SE 21:04:32 10° E
Cosmos 2151 Rocket 3.8 20:47:36 10° N 20:52:03 54° E 20:54:34 24° SSE
STARLINK-1110 4.3 20:49:16 10° NW 20:53:16 46° NE 20:55:32 23° E
Resurs 1-3 4.3 20:52:10 11° S 20:56:18 51° W 21:00:36 10° NNW
STARLINK-1124 4.1 20:55:25 10° NW 20:59:28 52° NE 21:01:29 26° ESE
Cosmos 1331 Rocket 4.2 20:57:23 18° S 21:00:59 48° ESE 21:05:57 10° NNE
Aureole 2 Rocket 2.0 20:59:49 19° SSW 21:02:00 88° ESE 21:05:03 10° NNE
STARLINK-1122 3.9 21:00:22 10° NW 21:04:27 57° NE 21:06:15 30° ESE
Cosmos 1300 Rocket 3.6 21:02:25 10° N 21:06:52 79° W 21:09:36 23° S
Cosmos 1437 Rocket 2.6 21:04:15 18° S 21:06:57 83° W 21:10:47 10° N
STARLINK-1126 3.8 21:05:21 10° NW 21:09:29 63° NE 21:11:06 34° ESE
Cosmos 1378 4.1 21:09:41 29° E 21:09:41 29° E 21:12:52 10° NNE
Cosmos 304 Rocket 3.8 21:08:40 10° SSW 21:13:25 81° WNW 21:18:15 10° NNE
STARLINK-1082 3.7 21:10:16 10° NW 21:14:25 70° NE 21:15:48 39° ESE
ISS -3.9 21:13:08 10° NW 21:16:30 86° NE 21:17:02 61° SE
NOSS 2-2 (D) 3.1 21:14:52 10° SW 21:18:26 76° WNW 21:22:09 10° NNE
Meteor 1-15 Rocket 4.4 21:13:22 10° N 21:19:14 61° ENE 21:21:57 32° SSE
STARLINK-1100 3.6 21:15:13 10° NW 21:19:22 77° NE 21:20:34 44° ESE
Lacrosse 5 1.9 21:15:03 10° NW 21:20:05 71° SW 21:22:07 36° SSE
Cosmos 1674 Rocket 3.7 21:19:11 21° SSW 21:22:04 73° W 21:26:28 10° N
STARLINK-1083 3.5 21:20:13 10° NW 21:24:22 85° NE 21:25:23 50° SE
Cosmos 1378 Rocket 3.5 21:22:49 31° S 21:24:56 89° ESE 21:29:21 10° N
STARLINK-1125 3.5 21:25:12 10° NW 21:29:21 86° SW 21:30:10 56° SE
Cosmos 1766 4.3 21:29:19 10° NNE 21:32:47 31° ENE 21:32:47 31° ENE
IGS 5A 3.4 21:31:57 48° S 21:33:03 84° WSW 21:37:14 10° NNW
Cosmos 1943 Rocket 2.1 21:31:46 33° S 21:34:09 61° ESE 21:39:39 10° NNE
Cosmos 2297 4.3 21:28:44 10° SW 21:34:18 57° WNW 21:39:56 10° NNE
STARLINK-1109 3.5 21:30:11 10° NW 21:34:19 78° SW 21:34:57 61° SSE
NOSS 3-4 (A) 4.4 21:36:32 25° E 21:36:32 25° E 21:40:32 10° NE
NOSS 3-4 (C) 4.5 21:36:40 25° E 21:36:40 25° E 21:40:37 10° NE
Cosmos 1833 Rocket 4.1 21:33:31 10° NW 21:38:20 30° WSW 21:41:52 16° SSW
Landsat 7 3.8 21:36:41 40° S 21:38:22 77° WSW 21:43:08 10° NNW
OE (NEXTSAT) 4.4 21:35:01 10° WSW 21:38:31 77° NNW 21:39:15 52° NE
OAO 1 4.5 21:33:28 10° WSW 21:38:54 62° SSE 21:40:48 39° ESE
STARLINK-1091 3.5 21:35:08 10° NW 21:39:16 70° SW 21:39:42 63° S
STARLINK-1072 3.6 21:40:10 10° NW 21:44:15 62° SW 21:44:31 61° SSW
Cosmos 1975 Rocket 3.5 21:44:36 45° E 21:44:36 45° E 21:48:44 10° NNE
CZ-4B DEB 4.5 21:45:25 73° NNW 21:45:25 73° NNW 21:48:28 10° NNW
Cosmos 2082 Rocket 3.0 21:39:54 10° NW 21:45:19 45° WSW 21:47:54 28° SSW
SeaSat 1 4.4 21:43:25 10° ENE 21:44:35 14° ENE 21:44:35 14° ENE
STARLINK-1096 3.8 21:45:10 10° NW 21:49:13 56° SW 21:49:17 56° SW
Cosmos 2369 Rocket 2.2 21:49:04 48° SSE 21:50:20 59° ESE 21:55:53 10° NNE
ASTRO E2 4.5 21:48:53 10° WSW 21:50:31 21° SW 21:50:31 21° SW
STARLINK-1079 4.0 21:50:10 10° WNW 21:54:04 50° SW 21:54:04 50° SW
SPOT 5 3.0 21:53:31 54° SE 21:54:42 77° ENE 22:00:02 10° N
ATLAS CENTAUR R/B 4.0 21:59:35 10° ENE 21:59:35 10° ENE 21:59:40 10° ENE
STARLINK-1116 4.3 21:55:11 10° WNW 21:58:52 44° WSW 21:58:52 44° WSW
ERS-1 Rocket 2.9 21:59:40 57° S 22:00:43 80° WSW 22:05:46 10° NNW
Okean 2 3.3 22:02:00 81° NE 22:02:00 81° NE 22:06:00 10° N
Cosmos 2026 Rocket 4.0 22:00:23 49° SSE 22:01:57 64° E 22:08:14 10° NNE
ATLAS 2AS CENTAUR R/B 3.1 22:00:30 39° SSE 22:03:13 55° ESE 22:10:57 10° NE
Cosmos 1656 Rocket 4.5 22:04:50 34° E 22:04:50 34° E 22:09:08 10° NE
STARLINK-1101 4.4 22:02:28 10° NW 22:06:25 42° NE 22:06:38 41° NE
Meteor 1-22 Rocket 4.1 22:02:16 10° N 22:08:06 75° E 22:09:05 60° SE
APEX 4.4 22:06:47 50° SSE 22:08:21 66° ESE 22:14:04 10° NNE
Resurs 01 Rocket 4.3 22:06:55 10° WSW 22:08:42 12° W 22:10:31 10° WNW
STARLINK-1102 4.3 22:07:25 10° NW 22:11:25 46° NE 22:11:26 46° NE
NOSS 3-2 (A) 4.3 22:04:11 10° NNW 22:11:52 63° NE 22:15:11 39° ESE
Cosmos 1805 3.6 22:08:52 10° NNW 22:12:24 60° WNW 22:12:24 60° WNW
Okean 1 Rocket 4.1 22:10:14 10° NNW 22:14:21 38° W 22:15:06 35° WSW
STARLINK-1111 4.3 22:12:22 10° NW 22:16:12 49° NNE 22:16:12 49° NNE
Cosmos 968 Rocket 4.5 22:12:40 10° N 22:17:16 32° ENE 22:17:31 32° ENE
ATLAS 5 CENTAUR R/B 4.0 22:09:39 10° SSW 22:21:46 16° NE 22:22:20 10° NE
Cosmos 1455 Rocket 3.5 22:15:47 10° N 22:19:25 52° NE 22:19:25 52° NE
STARLINK-1073 4.2 22:17:19 10° NW 22:20:59 52° NNE 22:20:59 52° NNE
SL-4 R/B 3.0 22:18:17 10° WSW 22:22:56 56° NW 22:27:42 10° NE
Terra 1.7 22:23:15 77° WSW 22:23:20 77° WSW 22:28:07 10° NNW
Cosmos 1842 3.9 22:24:08 53° NNW 22:24:08 53° NNW 22:27:17 10° N
USA 238 DEB 3.9 22:16:24 10° NNW 22:23:41 71° ENE 22:25:51 48° ESE
USA 238 3.9 22:16:30 10° NNW 22:23:47 71° NE 22:25:58 48° ESE
SL-8 R/B 4.1 22:19:05 10° NW 22:23:49 56° NNE 22:24:13 54° NE
Meteor 2-13 Rocket 4.3 22:23:31 60° S 22:24:46 87° E 22:30:58 10° N
CARTOSAT-1 4.4 22:24:56 41° W 22:24:59 41° W 22:29:05 10° NNW
STARLINK-1121 4.3 22:22:17 10° NW 22:25:46 53° N 22:25:46 53° N
STARLINK-1106 4.3 22:27:15 10° NW 22:30:34 52° NNW 22:30:34 52° NNW
STARLINK-1112 4.5 22:32:12 10° NW 22:35:20 49° NNW 22:35:20 49° NNW
Cosmos 2263 4.2 22:39:19 61° SW 22:40:12 74° WNW 22:45:50 10° NNE
Cosmos 1271 Rocket 4.2 22:49:29 35° N 22:49:29 35° N 22:51:53 10° N
Cosmos 1242 Rocket 4.4 22:49:25 31° NNW 22:49:25 31° NNW 22:51:40 10° N
Meteor 1-21 4.5 22:50:09 55° WSW 22:50:54 61° W 22:56:27 10° N
COSMOS 2455 2.9 22:52:50 64° E 22:52:50 64° E 22:58:18 10° NNE
Cosmos 1544 Rocket 4.4 22:52:31 10° NNW 22:55:47 48° NNW 22:55:47 48° NNW
Cosmos 1707 4.4 22:59:43 33° N 22:59:43 33° N 23:01:57 10° N
Cosmos 1486 Rocket 4.1 22:53:42 10° NNW 22:58:32 72° NW 22:58:32 72° NW
Cosmos 1833 4.4 22:55:40 10° NNW 23:01:10 61° ENE 23:01:10 61° ENE
ALOS 2 4.2 23:07:47 28° NE 23:07:47 28° NE 23:10:37 10° N
ATLAS 3B CENTAUR R/B 3.9 22:58:16 10° WSW 23:05:09 31° SW 23:05:09 31° SW
Cosmos 1726 4.3 23:05:44 10° N 23:07:20 23° NNE 23:07:20 23° NNE
Cosmos 1417 Rocket 4.4 23:06:18 10° N 23:12:38 78° W 23:12:59 75° SW
CENTAUR R/B 3.1 23:07:55 10° NNW 23:16:17 86° ENE 23:18:17 59° SE
Cosmos 1867 3.9 23:13:42 10° NNW 23:18:45 58° NE 23:18:45 58° NE
ATLAS 3B R/B 3.5 23:12:43 10° NNW 23:19:13 44° NE 23:21:09 36° E
Cosmos 2098 Rocket 4.4 23:20:08 58° ESE 23:20:30 59° E 23:27:48 10° NNE
NOSS 3-2 (C) 4.0 23:13:48 10° NW 23:21:39 79° WSW 23:23:02 65° S
SeaSat 1 3.0 23:19:40 10° NNE 23:24:20 52° NW 23:24:20 52° NW
NOSS 3-4 (A) 4.2 23:23:52 32° W 23:26:05 45° NW 23:32:03 10° NNE
NOSS 3-4 (C) 4.2 23:24:01 33° W 23:26:11 46° NW 23:32:09 10° NNE
BREEZE-M R/B 4.0 23:22:04 10° SW 23:32:52 87° SE 23:37:39 10° NE
Cosmos 2369 Rocket 4.4 23:30:46 10° W 23:34:45 19° NW 23:38:43 10° N
ATLAS CENTAUR R/B 3.1 23:35:42 31° NW 23:35:42 31° NW 23:38:52 10° N
Cosmos 2315 Rocket 4.1 23:30:58 10° N 23:36:58 63° ENE 23:36:58 63° ENE
S3M 4.3 23:36:53 10° NNW 23:42:52 55° W 23:42:52 55° W
Cosmos 1953 4.4 23:44:34 10° NNW 23:46:22 24° NW 23:46:22 24° NW
